Regional Weather Roundup
Issued by NWS Wakefield, VA

Home | Current Version | Previous Version | Text Only | Print | Product List | Glossary Off
Versions: 1 2 3 4 5 6 7 8 9 10 11 12 13 14 15 16 17 18 19 20 21 22 23 24 25 26 27 28 29 30 31 32 33 34 35 36 37 38 39 40 41 42 43 44 45 46 47 48 49 50

000
ASUS41 KAKQ 041016
RWRAKQ

REGIONAL WEATHER ROUNDUP
NATIONAL WEATHER SERVICE WAKEFIELD VA
500 AM EST SUN DEC 04 2016

Note: "fair" indicates few or no clouds below 12,000 feet with no
significant weather and/or obstructions to visibility. * = Denotes
station may not report precipitation (e.g., rain,snow,etc.),
thunder or fog.

VAZ042-051-052>054-056-041100-
NORTHERN VIRGINIA

CITY           SKY/WX    TMP DP  RH WIND       PRES   REMARKS
WASH NATIONAL  MOCLDY    40  27  59 NW9       30.28R
DULLES         CLOUDY    34  25  69 NW3       30.28R
FORT BELVOIR   CLOUDY    33  27  76 W3        30.28R
QUANTICO       PTCLDY    36  27  69 W3        30.30R
FREDERICKSBRG* PTCLDY    32  29  90 CALM      30.29S
STAFFORD*      PTCLDY    32  28  87 NW5       30.33S
WARRENTON      PTCLDY    28  24  84 CALM      30.28S
CULPEPER*      MOCLDY    31  27  87 CALM      30.29S
MANASSAS*      CLOUDY    28  27  93 CALM      30.29S
LEESBURG*      CLOUDY    36  30  80 NW6       30.28S
WINCHESTER     CLOUDY    30  25  80 W5        30.28R
FRONT ROYAL*   FAIR      32  27  80 SW5       30.26S
LURAY*         FAIR      28  28 100 CALM      30.28S
$$

VAZ048-049-060>072-079>083-041100-
CENTRAL AND SOUTH CENTRAL VIRGINIA

CITY           SKY/WX    TMP DP  RH WIND       PRES   REMARKS
RICHMOND       NOT AVBL
CHESTERFIELD*  FAIR      37  16  41 N6        30.30R
PETERSBURG*    CLOUDY    36  28  74 CALM      30.29R
HANOVER        CLOUDY    35  26  69 CALM      30.30S
TAPPAHANNOCK*  CLOUDY    30  30 100 CALM      30.29S
QUINTON*       FAIR      34  28  80 CALM      30.28S
CHARLOTTSVILLE CLEAR     32  27  81 W3        30.28S
GORDONSVILLE*  FAIR      27  26  96 CALM      30.28F
ORANGE*          N/A     32  30  93 CALM      30.30S
LOUISA*        PTCLDY    34  30  86 CALM      30.26F
BUMPASS*       FAIR      33  29  86 CALM      30.28S
FARMVILLE*     PTCLDY    35  33  95 CALM      30.28S
CREWE*         FAIR      35  31  86 CALM      30.28R
FORT PICKETT*  FAIR      37  24  60 N3        30.28R
CHASE CITY*    FAIR      37  28  68 NE3       30.28S
CLARKSVILLE*   FAIR      37  30  75 CALM      30.28S
SOUTH HILL*    CLOUDY    37  30  78 N3        30.34R
LAWRENCEVILLE* FAIR      37  29  73 CALM      30.28R
EMPORIA*       CLOUDY    36  30  80 N6        30.30R
$$

VAZ088>098-041100-
SOUTHEAST VIRGINIA

CITY           SKY/WX    TMP DP  RH WIND       PRES   REMARKS
NORFOLK        PTCLDY    44  35  70 N9        30.25S
VIRGINIA BEACH MOCLDY    41  34  76 N5        30.24S
NORFOLK NAVAL  CLOUDY    42  34  73 N8        30.28S
WEST POINT*    CLOUDY    33  31  89 CALM      30.30S
SALUDA*        FAIR      40  32  75 NW7       30.27S
NEWPORT NEWS   PTCLDY    37  31  78 N6        30.27S
LANGLEY AFB    PTCLDY    39  32  76 NW8       30.26S
FORT EUSTIS    CLOUDY    39  30  71 N5        30.25S
WILLIAMSBURG*  MOCLDY    37  30  75 CALM      30.29R
HR EXEC AP*    FAIR      32  28  86 NE3       30.25F
FRANKLIN*      MOCLDY    36  31  82 CALM      30.29R
US460-WAKEFLD  PTCLDY    35  31  85 CALM      30.28S
$$

VAZ020-022-025-037-045-041100-
WEST CENTRAL AND SOUTHWEST VIRGINIA

CITY           SKY/WX    TMP DP  RH WIND       PRES   REMARKS
STAUNTON*      PTCLDY    28  26  92 CALM      30.29S
WAYNESBORO*    FAIR      27  25  92 CALM      30.25F
HOT SPRINGS VA CLOUDY    27  27 100 E3        30.13
LYNCHBURG      CLOUDY    36  28  73 NE5       30.28S
DANVILLE       CLOUDY    38  30  73 E8        30.28R
SOUTH BOSTON*  FAIR      36  32  84 CALM      30.29S
MARTINSVILLE   CLOUDY    37  28  70 CALM      30.29S
ROANOKE        MOCLDY    37  29  72 CALM      30.28S
BLACKSBURG     CLOUDY    33  29  83 CALM      30.26R
DUBLIN*        CLOUDY    34  29  82 CALM      30.24R
MARION*        CLOUDY    34  29  80 NE6       30.22S
HILLSVILLE*    CLOUDY    32  28  85 CALM      30.19R
RICHLANDS*     CLOUDY    33  29  85 CALM      30.17S
WISE*          DRIZZLE   36  30  80 SW3       30.17F
ABINGDON*      RAIN      38  32  79 E3        30.20F
$$

MDZ021>025-VAZ099-100-041100-
SOUTHERN MARYLAND AND THE DELMARVA PENINSULA

CITY           SKY/WX    TMP DP  RH WIND       PRES   REMARKS
PATUXENT RIVER CLEAR     37  27  67 W9        30.27R
BAY BRIDGE APT PTCLDY    39  30  70 MISG      30.26R
LEONARDTOWN    CLEAR     34  28  80 W3        30.28S
DOVER          CLOUDY    42  34  72 W8        30.22F
GEORGETOWN     PTCLDY    37  31  78 W3        30.24S
EASTON         CLEAR     38  30  72 N5        30.28S
CAMBRIDGE      CLEAR     37  32  81 NW5       30.25R
SALISBURY      PTCLDY    34  30  85 W3        30.24S
OCEAN CITY     MOCLDY    35  30  82 NW5       30.24S
WALLOPS ISLAND PTCLDY    36  31  82 W6        30.26R
ACCOMACK*      PTCLDY    37  34  89 CALM      30.26R
$$

NCZ012>017-030>032-041100-
NORTH CENTRAL AND EASTERN NORTH CAROLINA

CITY           SKY/WX    TMP DP  RH WIND       PRES   REMARKS
ROANOKE RAPIDS FAIR      37  32  81 N5        30.28R
RALEIGH        CLOUDY    42  31  64 N5        30.28R
ELIZABETH CITY CLOUDY    42  34  73 N8        30.26R
AHOSKIE*       CLOUDY    38  32  78 CALM      30.28S
EDENTON*       CLOUDY    41  35  79 CALM      30.26S
CURRITUCK*     CLOUDY    42  35  76 NW3       30.26R
KILL DEVIL HLS CLOUDY    47  38  72 N6        30.22S
MANTEO         CLOUDY    45  38  76 N5        30.24S
CAPE HATTERAS  CLOUDY    49  39  68 VRB7      30.23R
TARBORO*       NOT AVBL
GOLDSBORO      CLOUDY    44  34  67 N5        30.25R
WASHINGTON     CLOUDY    40  34  79 CALM      30.26S
GREENVILLE     PTCLDY    41  36  81 CALM      30.27S
NEW BERN       CLOUDY    43  35  73 N5        30.26S
WILMINGTON     CLOUDY    45  36  70 NE5       30.25R
$$

VAZ048-041100-
ELSEWHERE

CITY           SKY/WX    TMP DP  RH WIND       PRES   REMARKS
HARRISBURG PA  CLOUDY    41  33  73 N3        30.22F
BALTIMORE      MOCLDY    38  29  70 W8        30.25S
ANNAPOLIS      PTCLDY    40  28  62 W5        30.26R
ANDREWS AFB    MOCLDY    38  27  65 W6        30.26R
PHILADELPHIA   CLOUDY    43  25  49 N6        30.23S
HENDERSON NC   CLOUDY    37  28  72 NE7       30.28R
GREENSBORO     CLOUDY    41  29  62 NE6       30.24F
ROCKY MOUNT    PTCLDY    41  34  76 NE5       30.28R
$$

VAZ100-041100-
MARINE

STATION/POSITION TIME  TEMP    WIND        PRES    WAVE   SWELL
                       AIR SEA DIR/SP/G            HT/PER HT/PER
                 (UTC) (F)     (DEG/KT/KT) (MB)    (FT/S) (FT/S)
BRANDYWINE LGT   0948   44     330/ 10/ 13   N/A
CAPE MAY NJ      0948   44 46  350/ 12/ 18 1023.1F
LEWES DE         0948   42 49  280/  9/ 11 1023.5F
OCEAN-CITY-INLET 0936   39 50  320/  7/  8 1024.1F
WACHAPREAGUE VA  0948   38 47   CALM  /  2 1024.7R
THOMAS POINT MD  1000   40 49  300/ 14/ 15   N/A
GOOSES REEF MD   0950   42     340/ 14/ 16 1025.2R
COVE POINT MD    0948   39     320/  8/ 11 1025.4R
SOLOMONS ISLAND  0936   40 51  280/  6/  9   N/A
BISHOPS HEAD MD  0948   40 44  310/  7/  8 1025.0R
PINEY POINT MD   0948          350/ 14/ 16   N/A
POTOMAC MD       0950   41     340/ 12/ 14 1024.3R
CAMBRIDGE MD     0948   42 47  310/  8/ 12 1023.8R
LEWISETTA VA     0948   41 49  330/  8/ 10 1024.9R
RAPPAHANNOCK LGT 0948          330/ 15/ 16 1025.1R
STINGRAY PT      0950   42     350/ 12/ 16 1025.3R
YORK RVR RNG VA  0948   42     350/ 14/ 16 1024.4S
YORKTOWN VA      0948   40 52  330/  9/ 11 1024.8R
JAMESTOWN VA     0950   37     330/  6/  8   N/A
DOMINION TERM VA 0948   41      40/  1/  4 1024.7F
KIPTOPEKE VA     0942      50   20/  4/  5   N/A
CHES BAY BRIDGE  0948   45 53  360/ 12/ 15 1024.2F
CAPE HENRY VA    0948   46     360/ 14/ 16   N/A
WILLOUBY STN VA  0948   42     360/ 10/ 11 1025.3S
S CRANEY ISL VA  0948   43      10/ 10/ 11 1024.3S
CAPE HENRY BUOY  0942      56                N/A     3/ 5
1ST LANDING BUOY 0950   46                 1024.7R
CAPE CHARLES BUO 0956      55                N/A     3/ 5
OFFSHORE WE BUOY 0951      57                N/A     4/ 5
64NM E OF VA BCH 0950   50 60  350/ 16/ 19 1023.0S   5/ 6
DUCK PIER NC     0948   48 54   10/ 11/ 16 1023.4R
44100 DUCK FRF   0905      57                N/A     4/ 6
OREGON INLET NC  0942   48 53  360/  9/ 12 1023.6R
HATTERAS NC      0948   49 56   10/ 15/ 17 1023.3R
DIAMOND SHLS NC  0950   54 75   10/ 14/ 19 1023.2R   5/ 9   5/ 9
CAPE LOOKOUT NC  0900   49      10/ 10/ 12 1023.5R
$$



USA.gov is the U.S. government's official web portal to all federal, state and local government web resources and services.